CFG615Z EDDH-LIRF

Flight info

Callsign CFG615Z
Flight time 2h 10m
Altitude 35000
Route AMLUH3B AMLUH M852 DENIX DCT ZUCKA DCT MOOCE DCT BERAS M736 LIZUM N503 LIKDA DCT BAKOR DCT VESAL DCT VIC DCT KOPER DCT SUKOM DCT GAVRA DCT RITEB
Aircraft A321/M-SDE3FGHIRWY/LB1

Departure

Time 2026-05-01 12:23
Airport Hamburg Helmut Schmidt Airport (EDDH)

Arrival

Time 2026-05-01 14:33
Airport Rome–Fiumicino Leonardo da Vinci International Airport (LIRF)
Time Latitude Longitude Altitude Speed Heading
2026-05-01 12:05 53.63332 10.00344 51 ft 0 kts 87°
2026-05-01 12:16 53.63331 10.00314 51 ft 2 kts 85°
2026-05-01 12:16 53.63329 10.00286 49 ft 2 kts 82°
2026-05-01 12:17 53.63327 10.00259 46 ft 2 kts 70°
2026-05-01 12:17 53.63318 10.00234 46 ft 2 kts 13°
2026-05-01 12:17 53.63308 10.00232 47 ft 1 kts 356°
2026-05-01 12:17 53.63307 10.00232 47 ft 0 kts 356°
2026-05-01 12:19 53.63374 10.00224 51 ft 16 kts 356°
2026-05-01 12:19 53.63462 10.00205 51 ft 19 kts 338°
2026-05-01 12:19 53.63515 10.00149 51 ft 0 kts 324°
2026-05-01 12:20 53.63536 10.00119 51 ft 7 kts 320°
2026-05-01 12:20 53.63538 10.00118 51 ft 0 kts 320°
2026-05-01 12:22 53.63539 10.00115 51 ft 2 kts 320°
2026-05-01 12:22 53.63597 10.00016 51 ft 18 kts 290°
2026-05-01 12:22 53.63536 9.99832 51 ft 18 kts 230°
2026-05-01 12:22 53.63423 9.99602 51 ft 49 kts 230°
2026-05-01 12:23 53.63053 9.98857 51 ft 114 kts 230°
2026-05-01 12:23 53.62444 9.97628 52 ft 161 kts 230°
2026-05-01 12:23 53.61691 9.96116 522 ft 165 kts 228°
2026-05-01 12:23 53.60965 9.94636 1315 ft 163 kts 226°
2026-05-01 12:24 53.60200 9.93087 1509 ft 184 kts 228°
2026-05-01 12:24 53.59334 9.91345 1714 ft 203 kts 228°
2026-05-01 12:24 53.58398 9.89452 2047 ft 217 kts 229°
2026-05-01 12:24 53.57424 9.87484 2649 ft 220 kts 223°
2026-05-01 12:25 53.56147 9.86195 3384 ft 216 kts 188°
2026-05-01 12:25 53.53497 9.87985 4554 ft 216 kts 137°
2026-05-01 12:25 53.52430 9.89758 5185 ft 216 kts 134°
2026-05-01 12:26 53.51639 9.91911 5769 ft 221 kts 111°
2026-05-01 12:26 53.51434 9.97555 6219 ft 266 kts 92°
2026-05-01 12:26 53.51423 10.00706 6870 ft 273 kts 93°
2026-05-01 12:27 53.51309 10.03885 7557 ft 272 kts 104°
2026-05-01 12:27 53.49793 10.09703 9003 ft 274 kts 118°
2026-05-01 12:28 53.48036 10.15381 10523 ft 273 kts 118°
2026-05-01 12:28 53.47169 10.18238 11046 ft 281 kts 118°
2026-05-01 12:28 53.44720 10.23834 11305 ft 320 kts 148°
2026-05-01 12:29 53.42591 10.25191 11512 ft 337 kts 166°
2026-05-01 12:29 53.40251 10.26076 11749 ft 352 kts 166°
2026-05-01 12:29 53.35434 10.27868 12837 ft 361 kts 166°
2026-05-01 12:30 53.30499 10.29736 14075 ft 366 kts 166°
2026-05-01 12:30 53.28001 10.30690 14329 ft 368 kts 166°
2026-05-01 12:30 53.25501 10.31647 14378 ft 369 kts 166°
2026-05-01 12:31 53.22999 10.32605 14382 ft 369 kts 166°
2026-05-01 12:31 53.20502 10.33558 14389 ft 369 kts 166°
2026-05-01 12:31 53.17989 10.34511 14587 ft 372 kts 166°
2026-05-01 12:31 53.15463 10.35470 15134 ft 374 kts 166°
2026-05-01 12:32 53.12945 10.36429 15644 ft 378 kts 166°
2026-05-01 12:32 53.07768 10.38386 16625 ft 385 kts 166°
2026-05-01 12:32 53.05137 10.39371 17101 ft 389 kts 166°
2026-05-01 12:33 53.02484 10.40367 17556 ft 393 kts 166°
2026-05-01 12:33 52.99809 10.41370 18014 ft 396 kts 166°
2026-05-01 12:33 52.97107 10.42385 18480 ft 400 kts 166°
2026-05-01 12:33 52.94385 10.43409 18893 ft 403 kts 166°
2026-05-01 12:34 52.91639 10.44440 19301 ft 406 kts 166°
2026-05-01 12:34 52.88877 10.45472 19717 ft 408 kts 166°
2026-05-01 12:34 52.86094 10.46511 20115 ft 411 kts 166°
2026-05-01 12:34 52.83301 10.47557 20528 ft 413 kts 166°
2026-05-01 12:35 52.80524 10.48599 20915 ft 416 kts 166°
2026-05-01 12:35 52.77698 10.49659 21323 ft 418 kts 166°
2026-05-01 12:35 52.74849 10.50725 21739 ft 421 kts 166°
2026-05-01 12:35 52.71987 10.51792 22167 ft 423 kts 166°
2026-05-01 12:36 52.69110 10.52860 22567 ft 426 kts 166°
2026-05-01 12:36 52.66211 10.53929 22966 ft 428 kts 166°
2026-05-01 12:36 52.63297 10.55004 23358 ft 430 kts 166°
2026-05-01 12:36 52.60364 10.56085 23762 ft 433 kts 166°
2026-05-01 12:37 52.57416 10.57171 24119 ft 436 kts 166°
2026-05-01 12:37 52.54492 10.58245 24354 ft 437 kts 166°
2026-05-01 12:37 52.51515 10.59334 24676 ft 439 kts 166°
2026-05-01 12:37 52.48526 10.60428 25006 ft 441 kts 166°
2026-05-01 12:38 52.45517 10.61527 25336 ft 443 kts 166°
2026-05-01 12:38 52.42503 10.62631 25637 ft 446 kts 166°
2026-05-01 12:38 52.39467 10.63743 25944 ft 448 kts 166°
2026-05-01 12:38 52.36422 10.64857 26246 ft 450 kts 166°
2026-05-01 12:39 52.33363 10.65978 26533 ft 452 kts 166°
2026-05-01 12:39 52.30332 10.67087 26815 ft 454 kts 166°
2026-05-01 12:39 52.27245 10.68213 27109 ft 456 kts 166°
2026-05-01 12:39 52.24143 10.69337 27397 ft 458 kts 166°
2026-05-01 12:40 52.21027 10.70464 27689 ft 460 kts 166°
2026-05-01 12:40 52.17898 10.71593 27965 ft 462 kts 166°
2026-05-01 12:40 52.14755 10.72726 28258 ft 463 kts 166°
2026-05-01 12:40 52.11611 10.73857 28648 ft 462 kts 166°
2026-05-01 12:41 52.08475 10.74984 29033 ft 461 kts 166°
2026-05-01 12:41 52.05344 10.76112 29416 ft 461 kts 166°
2026-05-01 12:41 52.02214 10.77239 29789 ft 460 kts 166°
2026-05-01 12:41 51.99130 10.78348 30150 ft 459 kts 166°
2026-05-01 12:42 51.96016 10.79468 30510 ft 459 kts 166°
2026-05-01 12:42 51.92898 10.80588 30817 ft 458 kts 166°
2026-05-01 12:42 51.89786 10.81701 31125 ft 458 kts 166°
2026-05-01 12:42 51.86675 10.82809 31427 ft 458 kts 166°
2026-05-01 12:43 51.83567 10.83915 31740 ft 457 kts 166°
2026-05-01 12:43 51.80461 10.85022 32030 ft 457 kts 166°
2026-05-01 12:43 51.77357 10.86128 32337 ft 457 kts 166°
2026-05-01 12:43 51.74251 10.87236 32634 ft 457 kts 166°
2026-05-01 12:44 51.71152 10.88337 32932 ft 456 kts 166°
2026-05-01 12:44 51.68088 10.89420 33221 ft 456 kts 166°
2026-05-01 12:44 51.61878 10.91522 33791 ft 456 kts 167°
2026-05-01 12:45 51.55644 10.93487 34357 ft 456 kts 168°
2026-05-01 12:45 51.52525 10.94457 34592 ft 456 kts 168°
2026-05-01 12:45 51.49409 10.95436 34808 ft 456 kts 168°
2026-05-01 12:46 51.46294 10.96426 35029 ft 457 kts 168°
2026-05-01 12:46 51.43174 10.97425 35241 ft 457 kts 168°
2026-05-01 12:46 51.40092 10.98415 35371 ft 458 kts 168°
2026-05-01 12:46 51.36977 10.99414 35400 ft 457 kts 168°
2026-05-01 12:47 51.30752 11.01409 35394 ft 456 kts 168°
2026-05-01 12:47 51.24525 11.03378 35400 ft 456 kts 168°
2026-05-01 12:48 51.18301 11.05339 35403 ft 456 kts 168°
2026-05-01 12:48 51.12117 11.07289 35403 ft 456 kts 168°
2026-05-01 12:49 51.05894 11.09258 35403 ft 456 kts 168°
2026-05-01 12:49 50.99667 11.11205 35406 ft 456 kts 168°
2026-05-01 12:50 50.93436 11.13148 35402 ft 456 kts 168°
2026-05-01 12:50 50.87245 11.15089 35403 ft 457 kts 168°
2026-05-01 12:51 50.81007 11.17029 35391 ft 457 kts 168°
2026-05-01 12:52 50.71653 11.19924 35385 ft 457 kts 168°
2026-05-01 12:52 50.62330 11.22801 35379 ft 457 kts 168°
2026-05-01 12:53 50.52963 11.25697 35373 ft 458 kts 168°
2026-05-01 12:54 50.46708 11.27615 35376 ft 458 kts 168°
2026-05-01 12:54 50.37321 11.30470 35373 ft 458 kts 168°
2026-05-01 12:55 50.27965 11.33329 35373 ft 459 kts 168°
2026-05-01 12:56 50.21691 11.35242 35377 ft 459 kts 168°
2026-05-01 12:56 50.15416 11.37138 35375 ft 460 kts 168°
2026-05-01 12:57 50.09137 11.39029 35370 ft 460 kts 168°
2026-05-01 12:57 49.99747 11.41850 35376 ft 460 kts 168°
2026-05-01 12:58 49.93453 11.43736 35374 ft 461 kts 168°
2026-05-01 12:59 49.84005 11.46555 35373 ft 461 kts 168°
2026-05-01 12:59 49.74594 11.49360 35374 ft 461 kts 167°
2026-05-01 13:00 49.65129 11.52168 35378 ft 462 kts 168°
2026-05-01 13:01 49.55637 11.54783 35377 ft 463 kts 174°
2026-05-01 13:02 49.46025 11.55773 35371 ft 464 kts 175°
2026-05-01 13:07 48.75196 11.63119 35371 ft 465 kts 174°
2026-05-01 13:08 48.68736 11.63793 35373 ft 466 kts 174°
2026-05-01 13:08 48.62270 11.64453 35370 ft 466 kts 174°
2026-05-01 13:09 48.55797 11.65098 35366 ft 466 kts 174°
2026-05-01 13:09 48.49365 11.65739 35345 ft 467 kts 174°
2026-05-01 13:10 48.42887 11.66396 35354 ft 467 kts 174°
2026-05-01 13:10 48.36400 11.67050 35356 ft 467 kts 174°
2026-05-01 13:11 48.29917 11.67702 35357 ft 467 kts 174°
2026-05-01 13:11 48.23478 11.68346 35353 ft 467 kts 174°
2026-05-01 13:12 48.16984 11.68992 35352 ft 468 kts 174°
2026-05-01 13:12 48.10490 11.69639 35351 ft 468 kts 174°
2026-05-01 13:13 48.03997 11.70282 35351 ft 468 kts 174°
2026-05-01 13:13 47.97543 11.70926 35350 ft 468 kts 174°
2026-05-01 13:14 47.91047 11.71568 35340 ft 468 kts 174°
2026-05-01 13:14 47.84554 11.72214 35332 ft 468 kts 174°
2026-05-01 13:15 47.78059 11.72857 35320 ft 468 kts 174°
2026-05-01 13:15 47.71559 11.73492 35314 ft 468 kts 174°
2026-05-01 13:16 47.65110 11.74122 35316 ft 468 kts 174°
2026-05-01 13:16 47.58611 11.74752 35314 ft 468 kts 174°
2026-05-01 13:17 47.45649 11.76021 35293 ft 469 kts 174°
2026-05-01 13:18 47.35879 11.76923 35294 ft 470 kts 177°
2026-05-01 13:18 47.29319 11.76592 35292 ft 472 kts 180°
2026-05-01 13:19 47.22753 11.76219 35296 ft 472 kts 180°
2026-05-01 13:20 47.12948 11.75680 35295 ft 473 kts 180°
2026-05-01 13:20 47.06375 11.75325 35291 ft 473 kts 179°
2026-05-01 13:21 46.96510 11.74810 35274 ft 473 kts 180°
2026-05-01 13:21 46.89933 11.74453 35276 ft 473 kts 180°
2026-05-01 13:22 46.83397 11.74091 35264 ft 473 kts 180°
2026-05-01 13:22 46.76805 11.73730 35275 ft 474 kts 180°
2026-05-01 13:23 46.70206 11.73382 35279 ft 475 kts 180°
2026-05-01 13:23 46.63603 11.73027 35273 ft 475 kts 180°
2026-05-01 13:24 46.57039 11.72667 35277 ft 475 kts 180°
2026-05-01 13:25 46.47121 11.72091 35275 ft 475 kts 180°
2026-05-01 13:25 46.40506 11.71715 35284 ft 476 kts 180°
2026-05-01 13:26 46.33886 11.71354 35289 ft 476 kts 179°
2026-05-01 13:26 46.27309 11.71007 35308 ft 477 kts 180°
2026-05-01 13:27 46.20679 11.70647 35320 ft 477 kts 180°
2026-05-01 13:27 46.10718 11.70124 35330 ft 478 kts 180°
2026-05-01 13:28 46.00792 11.69598 35341 ft 478 kts 180°
2026-05-01 13:29 45.87479 11.68884 35349 ft 479 kts 180°
2026-05-01 13:31 45.67516 11.67848 35363 ft 480 kts 180°
2026-05-01 13:32 45.50821 11.66725 35371 ft 481 kts 181°
2026-05-01 13:33 45.34130 11.65485 35373 ft 482 kts 181°
2026-05-01 13:34 45.20722 11.64524 35368 ft 483 kts 181°
2026-05-01 13:35 45.10698 11.64093 35363 ft 482 kts 176°
2026-05-01 13:36 45.00655 11.64763 35359 ft 482 kts 174°
2026-05-01 13:36 44.90598 11.65386 35358 ft 483 kts 176°
2026-05-01 13:37 44.83927 11.65660 35357 ft 483 kts 176°
2026-05-01 13:37 44.77205 11.65935 35359 ft 483 kts 176°
2026-05-01 13:38 44.67114 11.66412 35358 ft 484 kts 175°
2026-05-01 13:39 44.60380 11.66745 35360 ft 484 kts 175°
2026-05-01 13:39 44.53703 11.67277 35355 ft 482 kts 169°
2026-05-01 13:40 44.47062 11.68626 35356 ft 483 kts 169°
2026-05-01 13:40 44.40415 11.69969 35358 ft 483 kts 169°
2026-05-01 13:41 44.33755 11.71305 35368 ft 484 kts 169°
2026-05-01 13:41 44.27092 11.72637 35363 ft 484 kts 169°
2026-05-01 13:42 44.20466 11.73968 35360 ft 484 kts 169°
2026-05-01 13:42 44.13794 11.75309 35363 ft 485 kts 169°
2026-05-01 13:43 44.07108 11.76649 35355 ft 486 kts 169°
2026-05-01 13:43 44.00414 11.77981 35359 ft 487 kts 169°
2026-05-01 13:44 43.93700 11.79310 35350 ft 488 kts 169°
2026-05-01 13:44 43.87010 11.80624 35348 ft 489 kts 169°
2026-05-01 13:45 43.80262 11.81956 35338 ft 490 kts 168°
2026-05-01 13:45 43.73533 11.83512 35327 ft 490 kts 165°
2026-05-01 13:46 43.66894 11.85684 35325 ft 491 kts 162°
2026-05-01 13:46 43.60307 11.88005 35319 ft 492 kts 162°
2026-05-01 13:47 43.53628 11.90197 35325 ft 495 kts 163°
2026-05-01 13:47 43.46908 11.92287 35317 ft 496 kts 163°
2026-05-01 13:48 43.40174 11.94383 35291 ft 496 kts 163°
2026-05-01 13:48 43.36801 11.95444 34733 ft 497 kts 163°
2026-05-01 13:48 43.33426 11.96511 34045 ft 499 kts 162°
2026-05-01 13:48 43.30088 11.97570 33314 ft 500 kts 162°
2026-05-01 13:49 43.26693 11.98649 32590 ft 501 kts 162°
2026-05-01 13:49 43.23297 11.99727 31895 ft 502 kts 162°
2026-05-01 13:49 43.19893 12.00802 31217 ft 502 kts 162°
2026-05-01 13:49 43.16493 12.01869 30546 ft 502 kts 162°
2026-05-01 13:50 43.13084 12.02933 29787 ft 503 kts 162°
2026-05-01 13:50 43.09668 12.03996 28954 ft 503 kts 162°
2026-05-01 13:50 43.06252 12.05062 28137 ft 504 kts 162°
2026-05-01 13:50 43.02838 12.06127 27523 ft 500 kts 162°
2026-05-01 13:51 42.99503 12.07162 26945 ft 496 kts 162°
2026-05-01 13:51 42.96155 12.08197 26349 ft 492 kts 162°
2026-05-01 13:51 42.92829 12.09227 25786 ft 487 kts 162°
2026-05-01 13:51 42.89536 12.10248 25219 ft 483 kts 161°
2026-05-01 13:52 42.86268 12.11266 24641 ft 480 kts 161°
2026-05-01 13:52 42.83041 12.12273 24324 ft 469 kts 161°
2026-05-01 13:52 42.79912 12.13243 24221 ft 455 kts 161°
2026-05-01 13:52 42.76872 12.14178 24098 ft 440 kts 161°
2026-05-01 13:53 42.73969 12.15067 23974 ft 427 kts 161°
2026-05-01 13:53 42.68560 12.17387 23717 ft 387 kts 142°
2026-05-01 13:53 42.66275 12.19207 23422 ft 377 kts 140°
2026-05-01 13:54 42.64035 12.21017 23039 ft 373 kts 140°
2026-05-01 13:54 42.61809 12.22807 22612 ft 371 kts 140°
2026-05-01 13:54 42.59595 12.24581 22196 ft 368 kts 140°
2026-05-01 13:54 42.57395 12.26337 21777 ft 366 kts 140°
2026-05-01 13:55 42.55210 12.28076 21346 ft 364 kts 141°
2026-05-01 13:55 42.53055 12.29796 20832 ft 365 kts 141°
2026-05-01 13:55 42.50869 12.31542 20390 ft 364 kts 141°
2026-05-01 13:55 42.48692 12.33273 19982 ft 362 kts 142°
2026-05-01 13:56 42.46529 12.34990 19588 ft 359 kts 142°
2026-05-01 13:56 42.44380 12.36697 19272 ft 355 kts 142°
2026-05-01 13:56 42.42266 12.38376 19211 ft 351 kts 142°
2026-05-01 13:56 42.40159 12.40055 19219 ft 352 kts 142°
2026-05-01 13:57 42.37977 12.41592 19211 ft 358 kts 153°
2026-05-01 13:57 42.36386 12.42250 19213 ft 365 kts 163°
2026-05-01 13:57 42.32995 12.42492 19210 ft 374 kts 184°
2026-05-01 13:57 42.30424 12.41896 19213 ft 376 kts 188°
2026-05-01 13:58 42.27853 12.41272 19207 ft 375 kts 187°
2026-05-01 13:58 42.25280 12.40658 19206 ft 375 kts 187°
2026-05-01 13:58 42.22710 12.40051 19198 ft 375 kts 187°
2026-05-01 13:58 42.20151 12.39446 18948 ft 372 kts 187°
2026-05-01 13:59 42.17611 12.38844 18603 ft 369 kts 188°
2026-05-01 13:59 42.15093 12.38245 18236 ft 366 kts 188°
2026-05-01 13:59 42.12596 12.37654 17991 ft 359 kts 188°
2026-05-01 13:59 42.10171 12.37078 17854 ft 349 kts 188°
2026-05-01 14:00 42.07847 12.36524 17689 ft 340 kts 188°
2026-05-01 14:00 42.05531 12.35976 17398 ft 335 kts 188°
2026-05-01 14:00 42.03242 12.35436 17059 ft 333 kts 188°
2026-05-01 14:00 42.00971 12.34899 16781 ft 328 kts 188°
2026-05-01 14:01 41.98748 12.34659 16642 ft 314 kts 173°
2026-05-01 14:01 41.96636 12.35114 16421 ft 303 kts 158°
2026-05-01 14:01 41.94641 12.35959 16076 ft 299 kts 157°
2026-05-01 14:01 41.92617 12.36820 15087 ft 311 kts 158°
2026-05-01 14:02 41.90540 12.37696 14337 ft 313 kts 159°
2026-05-01 14:02 41.88495 12.38546 13684 ft 310 kts 159°
2026-05-01 14:02 41.86444 12.39394 13044 ft 306 kts 159°
2026-05-01 14:02 41.84429 12.40225 12728 ft 299 kts 159°
2026-05-01 14:03 41.82466 12.41034 12583 ft 290 kts 159°
2026-05-01 14:03 41.80565 12.41819 12399 ft 283 kts 159°
2026-05-01 14:03 41.78694 12.42595 12096 ft 280 kts 159°
2026-05-01 14:03 41.76840 12.43370 11794 ft 278 kts 158°
2026-05-01 14:04 41.74999 12.44144 11504 ft 276 kts 159°
2026-05-01 14:04 41.73167 12.44911 11197 ft 275 kts 159°
2026-05-01 14:04 41.71373 12.45659 10897 ft 273 kts 159°
2026-05-01 14:04 41.70149 12.46167 10702 ft 271 kts 159°
2026-05-01 14:05 41.67777 12.47154 10290 ft 269 kts 159°
2026-05-01 14:05 41.65993 12.47896 9987 ft 267 kts 159°
2026-05-01 14:05 41.64224 12.48629 9667 ft 266 kts 159°
2026-05-01 14:05 41.62463 12.49355 9318 ft 264 kts 159°
2026-05-01 14:06 41.60713 12.50075 8972 ft 263 kts 160°
2026-05-01 14:06 41.58968 12.50790 8653 ft 261 kts 160°
2026-05-01 14:06 41.57235 12.51497 8371 ft 260 kts 160°
2026-05-01 14:06 41.55531 12.52192 8067 ft 259 kts 160°
2026-05-01 14:07 41.53818 12.52893 7736 ft 257 kts 160°
2026-05-01 14:07 41.52111 12.53591 7428 ft 256 kts 160°
2026-05-01 14:07 41.50413 12.54284 7121 ft 254 kts 160°
2026-05-01 14:08 41.47057 12.55674 6515 ft 251 kts 160°
2026-05-01 14:08 41.45350 12.56089 6197 ft 251 kts 184°
2026-05-01 14:08 41.43707 12.55375 5866 ft 250 kts 216°
2026-05-01 14:08 41.42576 12.53665 5513 ft 247 kts 248°
2026-05-01 14:09 41.42033 12.51513 5157 ft 246 kts 256°
2026-05-01 14:09 41.41540 12.49364 5022 ft 238 kts 255°
2026-05-01 14:09 41.41162 12.47277 4973 ft 233 kts 271°
2026-05-01 14:09 41.41504 12.45237 4995 ft 225 kts 303°
2026-05-01 14:10 41.42545 12.43762 5003 ft 218 kts 333°
2026-05-01 14:10 41.43926 12.43060 4995 ft 208 kts 346°
2026-05-01 14:10 41.45299 12.42498 4993 ft 206 kts 346°
2026-05-01 14:10 41.46664 12.41935 4995 ft 206 kts 345°
2026-05-01 14:11 41.48035 12.41369 4992 ft 206 kts 345°
2026-05-01 14:11 41.50764 12.40242 4790 ft 204 kts 346°
2026-05-01 14:11 41.52105 12.39689 4446 ft 205 kts 345°
2026-05-01 14:12 41.53464 12.39128 4117 ft 204 kts 345°
2026-05-01 14:12 41.54818 12.38569 3801 ft 203 kts 345°
2026-05-01 14:12 41.56168 12.38010 3492 ft 203 kts 345°
2026-05-01 14:12 41.57516 12.37449 3165 ft 203 kts 344°
2026-05-01 14:13 41.58861 12.36890 3011 ft 203 kts 345°
2026-05-01 14:13 41.59755 12.36518 3013 ft 203 kts 345°
2026-05-01 14:13 41.61569 12.35762 3015 ft 205 kts 345°
2026-05-01 14:13 41.62927 12.35196 3011 ft 204 kts 344°
2026-05-01 14:14 41.64258 12.34641 3010 ft 203 kts 344°
2026-05-01 14:14 41.65608 12.34078 3009 ft 203 kts 344°
2026-05-01 14:14 41.66961 12.33512 2897 ft 203 kts 344°
2026-05-01 14:14 41.68305 12.32951 2656 ft 200 kts 344°
2026-05-01 14:15 41.69604 12.32410 2385 ft 191 kts 344°
2026-05-01 14:15 41.70844 12.31893 2139 ft 183 kts 344°
2026-05-01 14:15 41.72049 12.31391 1945 ft 179 kts 343°
2026-05-01 14:15 41.73177 12.30919 1701 ft 159 kts 344°
2026-05-01 14:16 41.74196 12.30495 1498 ft 151 kts 345°
2026-05-01 14:16 41.75177 12.30086 1297 ft 146 kts 343°
2026-05-01 14:16 41.76140 12.29684 1095 ft 145 kts 345°
2026-05-01 14:16 41.77106 12.29281 910 ft 144 kts 345°
2026-05-01 14:17 41.78058 12.28884 723 ft 142 kts 345°
2026-05-01 14:17 41.79008 12.28488 534 ft 144 kts 345°
2026-05-01 14:17 41.79961 12.28089 323 ft 144 kts 343°
2026-05-01 14:17 41.80912 12.27691 142 ft 142 kts 345°
2026-05-01 14:18 41.81826 12.27304 28 ft 132 kts 345°
2026-05-01 14:18 41.82685 12.26943 276 ft 132 kts 347°
2026-05-01 14:18 41.83579 12.26615 858 ft 137 kts 346°
2026-05-01 14:18 41.84203 12.26387 1214 ft 147 kts 346°
2026-05-01 14:19 41.85656 12.25831 1728 ft 167 kts 346°
2026-05-01 14:19 41.86803 12.25333 1909 ft 181 kts 343°
2026-05-01 14:19 41.88038 12.24750 2067 ft 195 kts 342°
2026-05-01 14:19 41.89361 12.24105 2175 ft 212 kts 342°
2026-05-01 14:20 41.90802 12.23390 2635 ft 225 kts 342°
2026-05-01 14:20 41.93743 12.21898 3755 ft 228 kts 343°
2026-05-01 14:20 41.95232 12.21133 4349 ft 230 kts 342°
2026-05-01 14:21 41.96736 12.20365 4923 ft 232 kts 342°
2026-05-01 14:21 41.98261 12.19585 5149 ft 235 kts 342°
2026-05-01 14:21 41.99784 12.18805 5191 ft 234 kts 343°
2026-05-01 14:22 42.02639 12.19666 5207 ft 225 kts 51°
2026-05-01 14:22 42.03458 12.21445 5182 ft 225 kts 71°
2026-05-01 14:22 42.03810 12.23477 5181 ft 227 kts 78°
2026-05-01 14:22 42.04071 12.25572 5171 ft 227 kts 79°
2026-05-01 14:23 42.04312 12.27671 5164 ft 227 kts 79°
2026-05-01 14:23 42.04554 12.29772 5158 ft 228 kts 81°
2026-05-01 14:23 42.04419 12.31890 5033 ft 232 kts 106°
2026-05-01 14:23 42.03529 12.33701 5034 ft 239 kts 138°
2026-05-01 14:24 42.02058 12.34779 5042 ft 244 kts 155°
2026-05-01 14:24 42.00455 12.35561 5040 ft 246 kts 158°
2026-05-01 14:24 41.98834 12.36310 5034 ft 247 kts 158°
2026-05-01 14:24 41.97234 12.37051 5031 ft 247 kts 158°
2026-05-01 14:25 41.95607 12.37797 5036 ft 246 kts 158°
2026-05-01 14:25 41.93983 12.38533 5039 ft 247 kts 159°
2026-05-01 14:25 41.92363 12.39274 5038 ft 246 kts 158°
2026-05-01 14:25 41.90746 12.40030 5037 ft 246 kts 158°
2026-05-01 14:26 41.89126 12.40783 5038 ft 247 kts 158°
2026-05-01 14:26 41.85880 12.42285 5034 ft 246 kts 158°
2026-05-01 14:26 41.84264 12.43043 5037 ft 246 kts 158°
2026-05-01 14:27 41.82648 12.43802 5034 ft 247 kts 158°
2026-05-01 14:27 41.81050 12.44551 5012 ft 247 kts 159°
2026-05-01 14:27 41.79432 12.45317 4719 ft 246 kts 158°
2026-05-01 14:28 41.76225 12.46835 4145 ft 244 kts 162°
2026-05-01 14:28 41.74558 12.47010 3801 ft 242 kts 190°
2026-05-01 14:28 41.73031 12.46145 3441 ft 237 kts 220°
2026-05-01 14:28 41.72270 12.45124 3268 ft 231 kts 234°
2026-05-01 14:29 41.71452 12.43271 2755 ft 232 kts 243°
2026-05-01 14:29 41.70690 12.41370 2506 ft 229 kts 243°
2026-05-01 14:30 41.69827 12.35049 2355 ft 202 kts 290°
2026-05-01 14:30 41.70446 12.33392 2209 ft 195 kts 306°
2026-05-01 14:30 41.71372 12.32079 2029 ft 193 kts 324°
2026-05-01 14:31 41.73265 12.30881 1627 ft 169 kts 343°
2026-05-01 14:31 41.74354 12.30428 1439 ft 160 kts 345°
2026-05-01 14:31 41.75690 12.29872 1155 ft 147 kts 344°
2026-05-01 14:31 41.76665 12.29465 968 ft 147 kts 345°
2026-05-01 14:32 41.77624 12.29065 785 ft 143 kts 345°
2026-05-01 14:32 41.78268 12.28796 658 ft 144 kts 344°
2026-05-01 14:32 41.79214 12.28402 463 ft 144 kts 343°
2026-05-01 14:32 41.80170 12.28002 274 ft 142 kts 345°
2026-05-01 14:33 41.81107 12.27597 76 ft 141 kts 346°
2026-05-01 14:33 41.82021 12.27231 13 ft 125 kts 343°
2026-05-01 14:33 41.82689 12.26954 23 ft 75 kts 341°
2026-05-01 14:33 41.83005 12.26789 22 ft 29 kts 330°
2026-05-01 14:34 41.83162 12.26620 19 ft 28 kts 313°
2026-05-01 14:34 41.83197 12.26569 20 ft 0 kts 312°
2026-05-01 14:37 41.83203 12.26561 20 ft 6 kts 312°
2026-05-01 14:37 41.83237 12.26459 20 ft 15 kts 262°
2026-05-01 14:37 41.83170 12.26395 21 ft 11 kts 195°
2026-05-01 14:37 41.83097 12.26373 20 ft 11 kts 192°
2026-05-01 14:38 41.82993 12.26363 17 ft 18 kts 169°
2026-05-01 14:38 41.82877 12.26410 17 ft 17 kts 162°
2026-05-01 14:38 41.82776 12.26452 19 ft 14 kts 162°
2026-05-01 14:38 41.82659 12.26501 21 ft 24 kts 162°
2026-05-01 14:39 41.82491 12.26573 20 ft 26 kts 163°
2026-05-01 14:39 41.82321 12.26642 18 ft 25 kts 162°
2026-05-01 14:39 41.82158 12.26710 18 ft 24 kts 162°
2026-05-01 14:39 41.81994 12.26778 16 ft 24 kts 163°
2026-05-01 14:40 41.81837 12.26843 17 ft 23 kts 163°
2026-05-01 14:40 41.81692 12.26904 21 ft 20 kts 162°
2026-05-01 14:40 41.81564 12.26958 21 ft 19 kts 163°
2026-05-01 14:40 41.81438 12.27010 20 ft 19 kts 163°
2026-05-01 14:41 41.81317 12.27059 20 ft 18 kts 163°
2026-05-01 14:41 41.81191 12.27113 16 ft 21 kts 162°
2026-05-01 14:41 41.81051 12.27173 14 ft 21 kts 163°
2026-05-01 14:41 41.80905 12.27233 11 ft 22 kts 162°
2026-05-01 14:42 41.80767 12.27286 14 ft 19 kts 175°
2026-05-01 14:42 41.80661 12.27222 15 ft 16 kts 234°
2026-05-01 14:42 41.80619 12.27089 14 ft 15 kts 250°
2026-05-01 14:42 41.80584 12.26964 16 ft 13 kts 249°
2026-05-01 14:43 41.80554 12.26854 16 ft 12 kts 250°
2026-05-01 14:43 41.80527 12.26753 14 ft 11 kts 250°
2026-05-01 14:43 41.80501 12.26659 16 ft 2 kts 249°
2026-05-01 14:44 41.80493 12.26631 15 ft 11 kts 249°
2026-05-01 14:45 41.80452 12.26484 15 ft 18 kts 251°
2026-05-01 14:45 41.80367 12.26181 16 ft 15 kts 245°
2026-05-01 14:45 41.80298 12.26087 14 ft 14 kts 210°
2026-05-01 14:46 41.80216 12.26034 15 ft 13 kts 205°
2026-05-01 14:46 41.79971 12.25884 19 ft 19 kts 204°
2026-05-01 14:46 41.79856 12.25806 18 ft 18 kts 210°
2026-05-01 14:47 41.79751 12.25736 18 ft 12 kts 205°
2026-05-01 14:47 41.79710 12.25688 18 ft 6 kts 271°
2026-05-01 14:47 41.79722 12.25649 19 ft 0 kts 298°